Location: Poughquag
(41.6090°N, 73.6820°W)
Time: 03:12:24
(UTC-04:00)

Vanguard 2 Rocket - Pass Details

Date: 31 May 2020
Orbit: 556 x 3324 km, 32.9° (Epoch: 06 July)

Event Time Altitude Azimuth Distance (km) Brightness Sun altitude
Rises 13:29:59 0° 191° (S) 3,269 10.1 68.9°
Reaches altitude 10° 13:33:32 10° 164° (SSE) 2,702 9.7 68.6°
Maximum altitude 13:36:38 14° 135° (SE) 2,776 9.7 68.4°
Drops below altitude 10° 13:40:26 10° 108° (ESE) 3,490 10.0 68.0°
Sets 13:46:23 0° 87° (E) 5,159 10.6 67.4°
